Location: Montbazon
(47.2835°N, 0.6999°E)
Time: 16:10:43
(UTC+00:00)

USA 59 Rocket - Pass Details

Date: 08 November 2025
Orbit: 370 x 1678 km, 63.3° (Epoch: 12 December)

Event Time Altitude Azimuth Distance (km) Brightness Sun altitude
Exits shadow 04:48:57 44° 22° (NNE) 572 0.0 -20.9°
Drops below altitude 10° 04:51:05 10° 36° (NE) 1,402 2.3 -20.5°
Sets 04:52:59 0° 39° (NE) 2,234 3.4 -20.2°
